User: anonymous   Login
Location: Unspecified
(38.9820°N, 94.4650°W)
Time: 00:54:15
(UTC-06:00)
Language:

Hubble Space Telescope - Orbit

View from above orbital plane
View from above orbital plane
View from above satellite
View from above satellite

Ground track
Ground track

The orbit data is extracted from the following two-line orbital elements,

1 20580U 90037B   19049.93048010 +.00000415 +00000-0 +14340-4 0  9998
2 20580 028.4692 283.8280 0002538 275.4868 200.6236 15.09175045382691
Epoch (UTC): 18 February 2019 22:19:53
Eccentricity: 0.0002538
inclination: 28.4692°
perigee height: 537 km
apogee height: 540 km
right ascension of ascending node: 283.8280°
argument of perigee: 275.4868°
revolutions per day: 15.09175045
mean anomaly at epoch: 200.6236°
orbit number at epoch: 38269

The dashed part of the orbit path shows where the satellite is in the earth's shadow,  

DLR